Other Public Products
Issued by NWS Grand Forks, ND

Home | Current Version | Previous Version | Text Only | Print | Product List | Glossary On
Versions: 1 2 3 4 5 6 7 8 9 10 11 12 13 14 15 16 17 18 19 20 21 22 23 24 25 26 27 28 29 30 31 32 33 34 35 36 37 38 39 40 41 42 43 44 45 46 47 48 49 50
000
FPUS83 KFGF 281910
OPUFGF
PRAIRIE TO PINES WEATHER ROUNDUP
NATIONAL WEATHER SERVICE EASTERN NORTH DAKOTA/GRAND FORKS ND
200 PM CDT WED SEP 28 2016

 **SATELLITE DATA USED TO AUGMENT SKY COVER AT AUTOMATED STATIONS**
 *****  WEATHER ACROSS EASTERN NORTH DAKOTA  *****

CITY           SKY/WX    TMP DP  RH WIND       PRES   REMARKS
GRAND FORKS    CLOUDY    59  46  62 N6        30.32R
GRAND FORKS AF CLOUDY    57  46  66 N7        30.32S
GRAND CITY NWS   N/A     55 N/A N/A NE6         N/A
BUXTON         NOT AVBL
DEVILS LAKE    PTSUNNY   54  45  71 VRB3      30.33S
FARGO          CLOUDY    62  47  57 VRB5      30.30S
WAHPETON ARPT  MOCLDY    57  45  62 N5        30.30S
$$

 *****  WEATHER ACROSS CENTRAL AND WESTERN NORTH DAKOTA  *****

CITY           SKY/WX    TMP DP  RH WIND       PRES   REMARKS
JAMESTOWN      SUNNY     56  46  69 NW6       30.31R
BISMARCK       SUNNY     67  40  37 VRB3      30.29S
MINOT          SUNNY     67  38  34 SE10      30.28S
MINOT AFB      SUNNY     68  40  36 E9        30.27S
GARRISON         N/A     69  35  28 E8        30.28R
WILLISTON      SUNNY     68  50  52 CALM      30.26S
DICKINSON      SUNNY     71  46  40 SE9       30.25S
HETTINGER      SUNNY     73  47  39 VRB7      30.27S
$$

 *****  OTHER OBSERVATIONS NORTHEAST NORTH DAKOTA  *****

CITY           SKY/WX    TMP DP  RH WIND       PRES   REMARKS
WALHALLA       FAIR      57  54  88 SW5       30.33S
LANGDON        FAIR      61  46  59 E5        30.32F
CAVALIER       FAIR      59  45  58 CALM      30.32F
GRAFTON        MOCLDY    57  46  67 VRB3      30.34S
CANDO          FAIR      57  48  72 S5        30.34F
FORT TOTTEN      N/A     56  48  75 N6        29.95S
ROLLA          FAIR      63  39  42 NE5       30.32S
RUGBY          FAIR      59  45  58 E6        30.31S
 ***** THE ABOVE OBSERVATIONS ARE NON NWS ARE NOT QUALITY
        CONTROLLED AND MAY MIS-REPORT RAIN FOR SNOW...
$$

 *****  OTHER OBSERVATIONS SOUTHEAST NORTH DAKOTA *****

CITY           SKY/WX    TMP DP  RH WIND       PRES   REMARKS
COOPERSTOWN    FAIR      61  45  55 CALM      30.31S
VALLEY CITY    FAIR      57  46  67 NE6       30.33R
OAKES          NOT AVBL
GWINNER        FAIR      61  46  59 NE10      30.31R
SHEYENNE NWR     N/A     56  46  69 NE6       29.95
BUFFALO        NOT AVBL
WYNDMERE       NOT AVBL
 ***** THE ABOVE OBSERVATIONS ARE NON NWS ARE NOT QUALITY
       CONTROLLED AND MAY MIS-REPORT RAIN FOR SNOW...
$$

  *****  WEATHER ACROSS NORTHERN MINNESOTA  *****

CITY           SKY/WX    TMP DP  RH WIND       PRES   REMARKS
FLAG ISLAND    NOT AVBL
WARROAD        CLOUDY    55  52  88 E7        30.33R
ROSEAU         CLOUDY    57  50  77 NW6       30.32R
HALLOCK        CLOUDY    57  48  72 CALM      30.32S
THF RVR FALLS  CLOUDY    58  47  66 VRB5      30.32R
HALSTAD          N/A     60  46  61 N5          N/A
FOSSTON        CLOUDY    57  55  94 NE5       30.31S
BAUDETTE       PTSUNNY   59  49  69 NW5       30.31S
WASKISH        CLOUDY    57  50  77 NE5       30.31R
CROOKSTON      PTSUNNY   59  48  67 N6        30.32R
$$
  *****  WEATHER ACROSS CENTRAL AND WEST MINNESOTA  *****

CITY           SKY/WX    TMP DP  RH WIND       PRES   REMARKS
BEMIDJI        CLOUDY    56  48  73 NE9       30.30R
PARK RAPIDS    CLOUDY    61  43  51 NE12G17   30.28R
WADENA         CLOUDY    59  46  63 N6        30.27S
DETROIT LAKES  PTSUNNY   55  46  71 N7        30.30S
MOORHEAD       PTSUNNY   59  46  63 NW9       30.30S
FERGUS FALLS   CLOUDY    59  46  63 NE6       30.30S
ELBOW LAKE     MOCLDY    57  47  67 NE7       30.28S
MORRIS MN      PTSUNNY   63  46  55 N9        30.26S
STAPLES        PTSUNNY   59  46  63 NE5       30.27R
WHEATON        NOT AVBL
$$
  *****  WEATHER ELSEWHERE ACROSS MINNESOTA  *****

CITY           SKY/WX    TMP DP  RH WIND       PRES   REMARKS
DULUTH         CLOUDY    58  49  72 N8        30.24R
INTRNTL FALLS  CLOUDY    57  46  66 N8        30.31R
ELY            CLOUDY    55  46  71 NE3       30.27R
CLOQUET        CLOUDY    57  46  67 N12       30.24R
BRAINERD       CLOUDY    58  48  69 NE9       30.27R
HIBBING        CLOUDY    56  47  71 N9        30.27R
ALEXANDRIA     CLOUDY    61  47  59 N8        30.29R
SAINT CLOUD    CLOUDY    59  49  69 N10       30.24R
MINNEAPOLIS    CLOUDY    61  49  64 N12       30.20R
$$

  *****  WEATHER ACROSS SOUTH DAKOTA  *****

CITY           SKY/WX    TMP DP  RH WIND       PRES   REMARKS
SIOUX FALLS    MOSUNNY   64  47  53 N10       30.25S
BROOKINGS      SUNNY     59  45  59 NE9       30.26S
WATERTOWN      SUNNY     61  46  57 N10       30.27R
HURON          SUNNY     63  43  48 NE8       30.27S
SISSETON         N/A     56  46  69 VRB6      30.29S
ABERDEEN       SUNNY     62  43  49 NE6       30.29S
MITCHELL       SUNNY     63  45  51 NE6       30.28S
PIERRE         SUNNY     67  37  33 NE6       30.26S
MOBRIDGE       SUNNY     68  40  35 VRB5      30.26S
RAPID CITY     SUNNY     79  47  32 NE8       30.26S
$$

  *****  SOME WEATHER IN NEARBY STATES *****

CITY           SKY/WX    TMP DP  RH WIND       PRES   REMARKS
GLASGOW MT     SUNNY     68  46  45 VRB3      30.26F
GREAT FALLS MT SUNNY     59  41  51 VRB5      30.24F
CHEYENNE WY    SUNNY     73  35  25 CALM      30.38F
SCOTTSBLUFF NE SUNNY     78  43  28 E7        30.29F
OMAHA NE       MOSUNNY   63  47  55 N13       30.20S
DES MOINES IA  CLOUDY    59  48  67 NW15      30.14R
DAVENPORT IA   CLOUDY    62  46  55 N15G22    30.03R
CHICAGO IL     PTSUNNY   58  49  72 N15G22    29.93S
EAU CLAIRE WI  CLOUDY    65  49  56 NE10      30.12R
LA CROSSE WI   CLOUDY    60  55  83 N8        30.10R
$$

  *****  SOME NATIONAL WEATHER *****

CITY           SKY/WX    TMP DP  RH WIND       PRES   REMARKS
LA GUARDIA NY  CLOUDY    69  57  65 NE22G28   30.13R
RALEIGH NC     PTSUNNY   84  68  58 S9        29.92F
ATLANTA GA     MOSUNNY   84  56  38 VRB7G17   29.94F
NEW ORLEANS LA MOSUNNY   88  63  43 VRB6      29.98F
OKLAHOMA CITY  MOSUNNY   85  51  31 N8        30.07R
ALBUQUERQUE NM PTSUNNY   76  45  33 VRB5      30.29F
SALT LAKE CITY MOSUNNY   78  44  29 W7        30.16F
LOS ANGELES CA MOSUNNY   83  56  39 SW10      29.93S
BOISE ID       SUNNY     83  42  23 S10       30.01F
SEATTLE WA     MOSUNNY   60  49  66 N8        30.11F
$$

*** WEATHER ACROSS MANITOBA...SASKATCHEWAN AND ONTARIO ***
                ***ONTARIO***

CITY           SKY/WX    TMP DP  RH WIND       PRES   REMARKS
GERALDTON      CLOUDY    54  50  87 NE8       30.26R
THUNDER BAY    CLOUDY    61  50  67 NE3       30.23R
SIOUX LOOKOUT  CLOUDY    55  48  76 CALM      30.32R
TORONTO        PTSUNNY   70  50  49 E13       30.03S
BIG TROUT LK   CLOUDY    54  48  82 W8        30.25R
PICKLE LAKE    CLOUDY    54  46  76 W6        30.30R
DRYDEN         CLOUDY    55  46  71 E6        30.31R
KENORA         PTSUNNY   57  46  67 N5        30.32R
$$
                *** MANITOBA***

CITY           SKY/WX    TMP DP  RH WIND       PRES   REMARKS
BRANDON        MOSUNNY   64  46  52 VRB3      30.31S
DAUPHIN        SUNNY     63  45  51 VRB2      30.31R
ISLAND LAKE    MOSUNNY   57  48  72 NW6       30.28R
PILOT MOUND      N/A     57  46  67 NE3         N/A
THE PAS        MOSUNNY   63  34  34 NW14      30.34R
THOMPSON       MOSUNNY   61  34  36 W15G28    30.25R
WINNIPEG       MOSUNNY   59  45  58 E3        30.33R
LYNN LAKE      SUNNY     55  36  47 W12G21    30.25R
CHURCHILL      MOSUNNY   55  41  58 W18       30.03R
GILLAM         MOSUNNY   61  41  48 W13G18    30.17R
$$
                ***SASKATCHEWAN***

CITY           SKY/WX    TMP DP  RH WIND       PRES   REMARKS
ESTEVAN        MOSUNNY   70  46  43 E8        30.27S
KINDERSLEY     LGT RAIN  50  41  71 E6        30.36R
LLOYDMINSTER   CLOUDY    52  36  54 SE5       30.36S
PRINCE ALBERT  MOSUNNY   61  36  39 S3        30.36F
REGINA         PTSUNNY   61  45  55 NE14      30.29F
YORKTON        SUNNY     61  46  59 NE8       30.31F   C1F1C2F2C3F3C4F4C5F5C6F6C7F7C8F8C9F9CaFaCbFbCcFcCdFdCe!



USA.gov is the U.S. government's official web portal to all federal, state and local government web resources and services.